QPF
0.00 0.00 0.00 0.00 0.00 0.00 0.00 0.00 0.03 0.03 0.03 0.02 0.02 0.03 0.02 0.01 0.02 0.03 0.01 0.01 0.00 0.00 0.00 0.00 0.00 0.00 0.00 0.00 0.00 0.00 0.01 0.01 0.00 0.00 0.00 0.00 0.00 0.01 0.01 0.00 0.00 0.01 0.00 0.01 0.00 0.00 0.00 0.00 0.00
0.00 0.00 0.00 0.00 0.00 0.00 0.00 0.00 0.01 0.01 0.01 0.02 0.03 0.03 0.01 0.01 0.00 0.00 0.00 0.00 0.00 0.00 0.00 0.00 0.00 0.00 0.00 0.00 0.00 0.00 0.01 0.01 0.01 0.01 0.01 0.01 0.01 0.01 0.01 0.01 0.01 0.00 0.00 0.00 0.00 0.00 0.00 0.00 0.00
0.00 0.00 0.00 0.00 0.00 0.00 0.00 0.00 0.00 0.01 0.00 0.01 0.02 0.02 0.01 0.00 0.00 0.00 0.00 0.00 0.00 0.00 0.00 0.00 0.00 0.00 0.00 0.00 0.00 0.01 0.01 0.01 0.01 0.01 0.01 0.01 0.01 0.01 0.01 0.01 0.01 0.00 0.00 0.00 0.00 0.00 0.00 0.00 0.00
0.00 0.00 0.00 0.00 0.00 0.00 0.00 0.00 0.00 0.00 0.00 0.01 0.01 0.01 0.02 0.01 0.00 0.00 0.00 0.00 0.00 0.00 0.00 0.00 0.00 0.00 0.00 0.00 0.00 0.00 0.00 0.00 0.00 0.01 0.01 0.01 0.01 0.01 0.01 0.01 0.00 0.00 0.00 0.00 0.00 0.00 0.00 0.00 0.00
0.00 0.00 0.00 0.00 0.00 0.00 0.00 0.00 0.00 0.00 0.00 0.00 0.00 0.01 0.03 0.01 0.01 0.00 0.00 0.00 0.00 0.00 0.00 0.00 0.00 0.00 0.00 0.00 0.00 0.00 0.00 0.00 0.00 0.00 0.00 0.00 0.00 0.00 0.00 0.00 0.00 0.00 0.00 0.00 0.00 0.00 0.00 0.00 0.00
0.00 0.00 0.00 0.00 0.00 0.00 0.00 0.00 0.00 0.00 0.00 0.00 0.00 0.01 0.03 0.03 0.01 0.01 0.00 0.00 0.00 0.00 0.00 0.00 0.00 0.00 0.00 0.00 0.00 0.00 0.00 0.00 0.00 0.00 0.00 0.00 0.00 0.00 0.00 0.00 0.00 0.00 0.00 0.00 0.00 0.00 0.00 0.00 0.00
0.00 0.00 0.00 0.00 0.00 0.00 0.00 0.00 0.00 0.00 0.00 0.00 0.01 0.01 0.03 0.06 0.02 0.01 0.01 0.00 0.00 0.00 0.00 0.00 0.00 0.00 0.00 0.00 0.00 0.00 0.00 0.00 0.00 0.00 0.00 0.00 0.00 0.00 0.00 0.00 0.00 0.00 0.00 0.00 0.00 0.00 0.00 0.00 0.00
0.00 0.00 0.00 0.00 0.00 0.00 0.00 0.00 0.00 0.00 0.00 0.01 0.01 0.02 0.04 0.03 0.01 0.00 0.00 0.00 0.00 0.00 0.00 0.00 0.00 0.00 0.00 0.00 0.00 0.00 0.00 0.00 0.00 0.00 0.00 0.00 0.00 0.00 0.00 0.00 0.00 0.00 0.00 0.00 0.00 0.00 0.00 0.00 0.00
0.00 0.00 0.00 0.00 0.00 0.00 0.00 0.00 0.00 0.00 0.00 0.00 0.01 0.02 0.03 0.02 0.01 0.01 0.00 0.00 0.00 0.00 0.00 0.00 0.00 0.00 0.00 0.00 0.00 0.00 0.00 0.00 0.00 0.00 0.00 0.00 0.00 0.00 0.00 0.00 0.00 0.00 0.00 0.00 0.00 0.00 0.00 0.00 0.00
0.00 0.00 0.00 0.00 0.00 0.00 0.00 0.00 0.00 0.00 0.00 0.00 0.01 0.02 0.02 0.01 0.01 0.01 0.01 0.01 0.00 0.00 0.00 0.00 0.00 0.00 0.00 0.00 0.00 0.00 0.00 0.00 0.00 0.00 0.00 0.00 0.00 0.00 0.00 0.01 0.00 0.00 0.01 0.00 0.00 0.00 0.00 0.00 0.00
0.00 0.00 0.00 0.00 0.00 0.00 0.00 0.00 0.00 0.00 0.00 0.00 0.01 0.02 0.03 0.02 0.01 0.01 0.01 0.01 0.01 0.00 0.00 0.00 0.00 0.00 0.00 0.00 0.00 0.00 0.00 0.00 0.00 0.00 0.00 0.00 0.00 0.01 0.01 0.01 0.01 0.01 0.01 0.01 0.00 0.00 0.00 0.00 0.00
0.00 0.00 0.00 0.00 0.00 0.00 0.00 0.00 0.00 0.00 0.00 0.00 0.01 0.03 0.06 0.05 0.03 0.02 0.01 0.01 0.01 0.00 0.00 0.00 0.00 0.00 0.00 0.00 0.00 0.00 0.00 0.00 0.00 0.00 0.00 0.00 0.00 0.01 0.01 0.01 0.02 0.05 0.03 0.01 0.01 0.01 0.01 0.01 0.01
0.00 0.00 0.00 0.00 0.00 0.00 0.00 0.00 0.00 0.00 0.00 0.00 0.02 0.03 0.08 0.08 0.05 0.04 0.03 0.02 0.01 0.00 0.00 0.00 0.00 0.00 0.00 0.00 0.00 0.00 0.00 0.00 0.00 0.00 0.00 0.00 0.00 0.00 0.00 0.00 0.01 0.03 0.02 0.03 0.02 0.03 0.02 0.02 0.02
0.00 0.00 0.00 0.00 0.00 0.00 0.00 0.00 0.00 0.00 0.00 0.00 0.01 0.02 0.06 0.08 0.06 0.07 0.06 0.04 0.02 0.01 0.00 0.00 0.00 0.00 0.00 0.00 0.00 0.00 0.00 0.00 0.00 0.00 0.00 0.00 0.00 0.00 0.00 0.01 0.01 0.01 0.01 0.01 0.01 0.02 0.02 0.02 0.02
0.00 0.00 0.00 0.00 0.00 0.00 0.00 0.00 0.00 0.00 0.00 0.00 0.01 0.01 0.03 0.06 0.05 0.08 0.08 0.08 0.03 0.01 0.00 0.00 0.00 0.00 0.00 0.00 0.00 0.00 0.00 0.00 0.00 0.01 0.01 0.01 0.00 0.00 0.00 0.00 0.01 0.01 0.01 0.01 0.01 0.01 0.02 0.02 0.02
0.00 0.00 0.00 0.00 0.00 0.00 0.00 0.00 0.00 0.00 0.00 0.00 0.00 0.01 0.01 0.04 0.05 0.07 0.11 0.07 0.03 0.02 0.01 0.01 0.01 0.00 0.00 0.00 0.00 0.01 0.02 0.02 0.02 0.03 0.03 0.03 0.01 0.00 0.00 0.00 0.00 0.01 0.01 0.01 0.02 0.02 0.03 0.03 0.03
0.00 0.00 0.00 0.00 0.00 0.00 0.00 0.00 0.00 0.00 0.00 0.00 0.00 0.01 0.01 0.02 0.04 0.06 0.12 0.07 0.03 0.03 0.02 0.01 0.01 0.01 0.01 0.01 0.01 0.02 0.02 0.03 0.04 0.03 0.02 0.01 0.01 0.01 0.01 0.02 0.02 0.02 0.02 0.02 0.02 0.03 0.02 0.02 0.03
0.00 0.00 0.00 0.00 0.00 0.00 0.00 0.00 0.00 0.00 0.00 0.00 0.00 0.01 0.01 0.03 0.05 0.06 0.10 0.09 0.08 0.06 0.04 0.03 0.02 0.01 0.01 0.02 0.02 0.02 0.03 0.04 0.05 0.05 0.05 0.05 0.06 0.06 0.08 0.08 0.04 0.03 0.03 0.03 0.03 0.02 0.01 0.01 0.01
0.00 0.00 0.00 0.00 0.00 0.00 0.00 0.00 0.00 0.00 0.00 0.00 0.00 0.00 0.01 0.03 0.03 0.05 0.12 0.20 0.16 0.09 0.06 0.03 0.03 0.02 0.02 0.03 0.03 0.03 0.04 0.06 0.08 0.09 0.10 0.12 0.14 0.16 0.18 0.16 0.10 0.07 0.06 0.04 0.02 0.01 0.00 0.00 0.00
0.00 0.00 0.00 0.00 0.00 0.00 0.00 0.00 0.00 0.00 0.00 0.00 0.00 0.00 0.01 0.01 0.02 0.05 0.15 0.26 0.26 0.18 0.10 0.08 0.07 0.06 0.04 0.04 0.05 0.07 0.09 0.10 0.12 0.14 0.18 0.21 0.23 0.22 0.20 0.16 0.13 0.10 0.07 0.04 0.02 0.01 0.00 0.00 0.00
0.00 0.00 0.00 0.00 0.00 0.00 0.00 0.00 0.00 0.01 0.00 0.00 0.00 0.00 0.01 0.01 0.01 0.04 0.10 0.19 0.22 0.25 0.17 0.10 0.11 0.13 0.08 0.08 0.09 0.11 0.14 0.17 0.20 0.21 0.26 0.29 0.29 0.27 0.24 0.17 0.13 0.13 0.09 0.05 0.03 0.01 0.01 0.00 0.00
0.00 0.00 0.00 0.00 0.00 0.00 0.00 0.00 0.00 0.01 0.00 0.00 0.00 0.01 0.01 0.01 0.01 0.03 0.06 0.17 0.20 0.21 0.23 0.18 0.15 0.14 0.15 0.15 0.17 0.20 0.24 0.28 0.30 0.31 0.32 0.32 0.32 0.29 0.24 0.21 0.17 0.12 0.07 0.05 0.04 0.02 0.01 0.00 0.00
0.00 0.00 0.00 0.00 0.00 0.00 0.00 0.00 0.00 0.00 0.00 0.00 0.01 0.01 0.01 0.02 0.03 0.04 0.06 0.13 0.15 0.16 0.16 0.16 0.17 0.20 0.25 0.31 0.34 0.36 0.39 0.42 0.42 0.41 0.37 0.35 0.32 0.28 0.23 0.18 0.14 0.10 0.07 0.05 0.03 0.01 0.00 0.00 0.00
0.00 0.00 0.00 0.00 0.00 0.00 0.00 0.00 0.01 0.01 0.01 0.01 0.01 0.02 0.02 0.02 0.03 0.03 0.05 0.10 0.10 0.11 0.13 0.16 0.23 0.30 0.32 0.34 0.38 0.41 0.44 0.47 0.47 0.40 0.35 0.32 0.28 0.23 0.18 0.14 0.11 0.08 0.06 0.03 0.02 0.01 0.00 0.00 0.00
0.00 0.00 0.00 0.00 0.00 0.00 0.00 0.00 0.02 0.02 0.02 0.02 0.02 0.03 0.03 0.03 0.03 0.04 0.04 0.05 0.07 0.08 0.09 0.12 0.15 0.18 0.21 0.26 0.31 0.34 0.34 0.36 0.37 0.38 0.36 0.29 0.22 0.16 0.12 0.09 0.07 0.04 0.03 0.02 0.01 0.00 0.00 0.00 0.00
0.00 0.00 0.00 0.00 0.00 0.00 0.00 0.03 0.07 0.05 0.04 0.04 0.04 0.04 0.04 0.04 0.04 0.03 0.04 0.04 0.05 0.05 0.05 0.07 0.08 0.10 0.12 0.14 0.16 0.19 0.21 0.24 0.25 0.22 0.19 0.15 0.12 0.09 0.08 0.07 0.05 0.02 0.01 0.00 0.00 0.00 0.00 0.00 0.00
0.00 0.00 0.00 0.00 0.00 0.00 0.01 0.08 0.13 0.16 0.14 0.10 0.08 0.07 0.06 0.05 0.04 0.03 0.03 0.03 0.03 0.03 0.04 0.04 0.04 0.05 0.06 0.08 0.09 0.11 0.12 0.13 0.12 0.10 0.09 0.08 0.06 0.05 0.04 0.04 0.02 0.00 0.00 0.00 0.00 0.00 0.00 0.00 0.00
0.00 0.00 0.00 0.00 0.00 0.00 0.02 0.08 0.14 0.21 0.23 0.16 0.11 0.08 0.06 0.05 0.04 0.03 0.03 0.03 0.02 0.02 0.02 0.02 0.03 0.03 0.03 0.04 0.05 0.05 0.06 0.06 0.06 0.05 0.05 0.04 0.03 0.02 0.01 0.01 0.00 0.00 0.00 0.00 0.00 0.00 0.00 0.00 0.00
0.00 0.00 0.00 0.00 0.00 0.00 0.02 0.08 0.16 0.26 0.30 0.30 0.24 0.14 0.08 0.06 0.04 0.03 0.03 0.02 0.01 0.01 0.01 0.02 0.02 0.02 0.02 0.02 0.02 0.02 0.02 0.02 0.02 0.02 0.01 0.01 0.01 0.01 0.00 0.00 0.00 0.00 0.00 0.00 0.00 0.00 0.00 0.00 0.00
0.00 0.00 0.00 0.00 0.00 0.00 0.02 0.11 0.23 0.29 0.30 0.30 0.26 0.17 0.09 0.05 0.04 0.03 0.02 0.02 0.01 0.01 0.01 0.01 0.02 0.02 0.02 0.01 0.01 0.01 0.01 0.01 0.01 0.01 0.01 0.01 0.00 0.00 0.00 0.00 0.00 0.00 0.00 0.00 0.00 0.00 0.00 0.00 0.00
MSLP
1010.93 1011.81 1012.91 1014.00 1014.90 1015.44 1015.54 1015.22 1014.59 1013.80 1013.05 1012.48 1012.18 1012.17 1012.37 1012.69 1012.99 1013.17 1013.18 1013.04 1012.79 1012.53 1012.35 1012.32 1012.48 1012.78 1013.19 1013.62 1014.02 1014.33 1014.57 1014.74 1014.89 1015.08 1015.31 1015.61 1015.96 1016.30 1016.62 1016.87 1017.05 1017.16 1017.23 1017.30 1017.38 1017.50 1017.65 1017.81 1017.96
1011.55 1012.62 1013.79 1014.83 1015.54 1015.79 1015.54 1014.87 1013.91 1012.87 1011.94 1011.28 1010.97 1011.00 1011.28 1011.69 1012.08 1012.36 1012.46 1012.40 1012.26 1012.10 1012.04 1012.12 1012.36 1012.74 1013.20 1013.66 1014.07 1014.40 1014.65 1014.84 1015.03 1015.24 1015.51 1015.82 1016.16 1016.49 1016.77 1016.97 1017.10 1017.17 1017.22 1017.27 1017.35 1017.48 1017.64 1017.81 1017.97
1012.34 1013.55 1014.73 1015.65 1016.14 1016.10 1015.52 1014.52 1013.28 1012.03 1010.99 1010.29 1010.00 1010.09 1010.46 1010.95 1011.42 1011.78 1011.95 1011.98 1011.92 1011.86 1011.89 1012.05 1012.37 1012.80 1013.29 1013.76 1014.18 1014.50 1014.75 1014.95 1015.15 1015.37 1015.64 1015.95 1016.26 1016.55 1016.78 1016.94 1017.03 1017.07 1017.11 1017.17 1017.27 1017.41 1017.59 1017.78 1017.95
1013.22 1014.49 1015.62 1016.39 1016.64 1016.30 1015.43 1014.17 1012.73 1011.36 1010.27 1009.59 1009.36 1009.53 1009.98 1010.55 1011.09 1011.51 1011.75 1011.84 1011.85 1011.86 1011.96 1012.18 1012.54 1012.98 1013.47 1013.93 1014.32 1014.63 1014.86 1015.05 1015.23 1015.45 1015.71 1015.99 1016.27 1016.52 1016.71 1016.83 1016.90 1016.94 1016.98 1017.06 1017.18 1017.36 1017.56 1017.77 1017.96
1014.08 1015.33 1016.33 1016.91 1016.91 1016.33 1015.23 1013.80 1012.26 1010.86 1009.80 1009.19 1009.05 1009.30 1009.83 1010.47 1011.07 1011.53 1011.82 1011.96 1012.03 1012.10 1012.24 1012.50 1012.86 1013.29 1013.74 1014.15 1014.49 1014.75 1014.95 1015.11 1015.28 1015.49 1015.73 1015.99 1016.24 1016.46 1016.62 1016.72 1016.78 1016.82 1016.89 1016.99 1017.15 1017.36 1017.58 1017.80 1017.99
1014.79 1015.92 1016.75 1017.10 1016.88 1016.10 1014.86 1013.36 1011.82 1010.48 1009.52 1009.02 1008.98 1009.33 1009.92 1010.60 1011.23 1011.72 1012.05 1012.25 1012.37 1012.49 1012.67 1012.94 1013.28 1013.67 1014.05 1014.39 1014.65 1014.84 1014.99 1015.13 1015.28 1015.48 1015.71 1015.96 1016.20 1016.41 1016.55 1016.65 1016.72 1016.78 1016.87 1017.01 1017.19 1017.41 1017.64 1017.85 1018.02
1015.24 1016.19 1016.80 1016.91 1016.50 1015.58 1014.29 1012.81 1011.37 1010.16 1009.34 1008.98 1009.05 1009.46 1010.09 1010.78 1011.42 1011.93 1012.30 1012.54 1012.73 1012.91 1013.12 1013.39 1013.71 1014.04 1014.34 1014.58 1014.75 1014.87 1014.97 1015.08 1015.23 1015.43 1015.67 1015.94 1016.19 1016.40 1016.56 1016.67 1016.75 1016.83 1016.95 1017.10 1017.29 1017.50 1017.71 1017.88 1018.02
1015.38 1016.11 1016.46 1016.37 1015.79 1014.81 1013.54 1012.16 1010.87 1009.85 1009.20 1008.96 1009.11 1009.56 1010.18 1010.86 1011.48 1012.00 1012.40 1012.71 1012.96 1013.21 1013.47 1013.76 1014.06 1014.33 1014.54 1014.69 1014.78 1014.83 1014.89 1014.98 1015.14 1015.36 1015.63 1015.93 1016.20 1016.44 1016.62 1016.75 1016.85 1016.95 1017.08 1017.23 1017.41 1017.59 1017.76 1017.89 1017.97
1015.22 1015.70 1015.82 1015.54 1014.86 1013.86 1012.67 1011.45 1010.36 1009.53 1009.04 1008.91 1009.11 1009.54 1010.12 1010.74 1011.32 1011.83 1012.27 1012.64 1012.98 1013.31 1013.65 1013.97 1014.26 1014.48 1014.63 1014.71 1014.73 1014.73 1014.75 1014.84 1015.02 1015.27 1015.59 1015.92 1016.24 1016.51 1016.72 1016.88 1017.00 1017.11 1017.23 1017.37 1017.53 1017.67 1017.79 1017.86 1017.89
1014.84 1015.08 1014.99 1014.56 1013.82 1012.86 1011.80 1010.76 1009.87 1009.22 1008.87 1008.81 1009.01 1009.39 1009.88 1010.41 1010.93 1011.42 1011.89 1012.33 1012.77 1013.20 1013.62 1013.99 1014.30 1014.51 1014.61 1014.63 1014.60 1014.57 1014.59 1014.69 1014.89 1015.18 1015.54 1015.92 1016.28 1016.58 1016.82 1017.00 1017.14 1017.25 1017.37 1017.50 1017.63 1017.74 1017.81 1017.83 1017.80
1014.33 1014.37 1014.11 1013.58 1012.83 1011.95 1011.03 1010.17 1009.47 1008.98 1008.72 1008.69 1008.84 1009.12 1009.50 1009.92 1010.37 1010.83 1011.32 1011.83 1012.37 1012.90 1013.41 1013.85 1014.19 1014.41 1014.50 1014.50 1014.45 1014.40 1014.42 1014.54 1014.77 1015.10 1015.49 1015.90 1016.29 1016.62 1016.88 1017.08 1017.23 1017.36 1017.49 1017.61 1017.72 1017.81 1017.86 1017.85 1017.79
1013.82 1013.70 1013.32 1012.74 1012.01 1011.21 1010.44 1009.75 1009.21 1008.83 1008.63 1008.58 1008.66 1008.83 1009.08 1009.38 1009.75 1010.18 1010.68 1011.25 1011.87 1012.50 1013.09 1013.60 1013.98 1014.22 1014.32 1014.32 1014.28 1014.25 1014.28 1014.42 1014.67 1015.02 1015.43 1015.86 1016.26 1016.60 1016.88 1017.10 1017.27 1017.42 1017.56 1017.70 1017.82 1017.92 1017.96 1017.95 1017.88
1013.41 1013.18 1012.73 1012.11 1011.42 1010.72 1010.07 1009.52 1009.10 1008.80 1008.62 1008.54 1008.53 1008.59 1008.71 1008.91 1009.20 1009.59 1010.10 1010.70 1011.37 1012.06 1012.71 1013.27 1013.70 1013.97 1014.10 1014.13 1014.11 1014.11 1014.18 1014.34 1014.61 1014.97 1015.38 1015.80 1016.19 1016.54 1016.82 1017.05 1017.25 1017.43 1017.61 1017.79 1017.95 1018.07 1018.15 1018.17 1018.12
1013.17 1012.86 1012.36 1011.75 1011.09 1010.47 1009.92 1009.47 1009.13 1008.88 1008.71 1008.58 1008.50 1008.47 1008.49 1008.60 1008.82 1009.17 1009.66 1010.27 1010.95 1011.66 1012.33 1012.91 1013.36 1013.67 1013.84 1013.92 1013.95 1014.00 1014.10 1014.30 1014.58 1014.94 1015.33 1015.73 1016.11 1016.44 1016.72 1016.97 1017.20 1017.42 1017.66 1017.89 1018.11 1018.30 1018.43 1018.50 1018.49
1013.10 1012.74 1012.20 1011.59 1010.98 1010.41 1009.94 1009.56 1009.27 1009.05 1008.87 1008.72 1008.60 1008.50 1008.47 1008.52 1008.69 1008.99 1009.44 1010.00 1010.65 1011.33 1011.97 1012.54 1012.99 1013.32 1013.54 1013.67 1013.78 1013.89 1014.06 1014.29 1014.59 1014.94 1015.31 1015.68 1016.03 1016.34 1016.62 1016.88 1017.15 1017.43 1017.72 1018.03 1018.32 1018.57 1018.77 1018.89 1018.94
1013.16 1012.74 1012.19 1011.59 1011.00 1010.48 1010.06 1009.72 1009.47 1009.28 1009.11 1008.96 1008.82 1008.71 1008.65 1008.67 1008.80 1009.06 1009.44 1009.93 1010.49 1011.08 1011.65 1012.16 1012.59 1012.92 1013.18 1013.39 1013.58 1013.78 1014.02 1014.30 1014.63 1014.98 1015.33 1015.67 1015.99 1016.28 1016.56 1016.84 1017.14 1017.47 1017.82 1018.19 1018.55 1018.87 1019.13 1019.30 1019.39
1013.27 1012.82 1012.26 1011.67 1011.11 1010.63 1010.25 1009.95 1009.74 1009.57 1009.43 1009.30 1009.19 1009.10 1009.05 1009.06 1009.17 1009.37 1009.66 1010.04 1010.47 1010.92 1011.37 1011.79 1012.17 1012.50 1012.80 1013.08 1013.36 1013.67 1013.99 1014.35 1014.71 1015.07 1015.42 1015.74 1016.03 1016.31 1016.58 1016.87 1017.20 1017.56 1017.96 1018.38 1018.79 1019.16 1019.46 1019.67 1019.80
1013.35 1012.89 1012.35 1011.79 1011.28 1010.85 1010.51 1010.26 1010.07 1009.95 1009.85 1009.77 1009.70 1009.66 1009.64 1009.67 1009.75 1009.88 1010.07 1010.31 1010.58 1010.86 1011.16 1011.47 1011.77 1012.09 1012.42 1012.78 1013.16 1013.58 1014.01 1014.44 1014.86 1015.25 1015.59 1015.90 1016.18 1016.44 1016.71 1017.01 1017.35 1017.73 1018.16 1018.60 1019.03 1019.42 1019.75 1019.98 1020.12
1013.35 1012.91 1012.42 1011.93 1011.49 1011.13 1010.86 1010.66 1010.54 1010.46 1010.41 1010.39 1010.39 1010.39 1010.42 1010.46 1010.51 1010.58 1010.65 1010.73 1010.83 1010.94 1011.07 1011.25 1011.48 1011.77 1012.13 1012.56 1013.04 1013.56 1014.09 1014.60 1015.08 1015.51 1015.87 1016.18 1016.45 1016.71 1016.97 1017.27 1017.60 1017.99 1018.41 1018.85 1019.28 1019.67 1019.99 1020.23 1020.38
1013.23 1012.86 1012.46 1012.09 1011.78 1011.52 1011.34 1011.23 1011.16 1011.14 1011.15 1011.18 1011.24 1011.29 1011.35 1011.40 1011.42 1011.41 1011.37 1011.30 1011.23 1011.17 1011.16 1011.21 1011.36 1011.63 1012.01 1012.49 1013.06 1013.66 1014.28 1014.88 1015.41 1015.87 1016.26 1016.58 1016.85 1017.10 1017.35 1017.64 1017.96 1018.33 1018.73 1019.14 1019.54 1019.90 1020.21 1020.44 1020.59
1012.98 1012.74 1012.50 1012.30 1012.14 1012.04 1011.98 1011.96 1011.97 1012.01 1012.07 1012.14 1012.23 1012.32 1012.40 1012.44 1012.42 1012.35 1012.21 1012.02 1011.81 1011.61 1011.47 1011.43 1011.52 1011.76 1012.15 1012.67 1013.29 1013.96 1014.64 1015.28 1015.86 1016.34 1016.74 1017.07 1017.34 1017.59 1017.84 1018.11 1018.42 1018.75 1019.11 1019.48 1019.84 1020.17 1020.45 1020.67 1020.82
1012.64 1012.57 1012.53 1012.54 1012.59 1012.66 1012.75 1012.84 1012.92 1013.01 1013.11 1013.21 1013.32 1013.41 1013.49 1013.51 1013.47 1013.34 1013.13 1012.86 1012.55 1012.27 1012.04 1011.94 1011.99 1012.21 1012.60 1013.13 1013.77 1014.47 1015.17 1015.83 1016.42 1016.91 1017.31 1017.64 1017.92 1018.17 1018.41 1018.67 1018.95 1019.25 1019.57 1019.89 1020.19 1020.48 1020.73 1020.94 1021.09
1012.25 1012.39 1012.58 1012.82 1013.08 1013.34 1013.58 1013.78 1013.94 1014.07 1014.18 1014.28 1014.39 1014.47 1014.53 1014.54 1014.47 1014.31 1014.07 1013.76 1013.43 1013.11 1012.86 1012.73 1012.77 1012.98 1013.36 1013.88 1014.51 1015.19 1015.87 1016.51 1017.07 1017.55 1017.94 1018.26 1018.54 1018.78 1019.03 1019.28 1019.54 1019.81 1020.08 1020.35 1020.61 1020.86 1021.07 1021.27 1021.43
1011.87 1012.21 1012.63 1013.10 1013.57 1014.00 1014.37 1014.66 1014.88 1015.04 1015.16 1015.26 1015.34 1015.41 1015.45 1015.44 1015.36 1015.21 1014.98 1014.69 1014.38 1014.08 1013.86 1013.76 1013.81 1014.02 1014.39 1014.88 1015.46 1016.09 1016.71 1017.28 1017.79 1018.23 1018.59 1018.90 1019.17 1019.42 1019.66 1019.91 1020.16 1020.40 1020.65 1020.88 1021.09 1021.30 1021.48 1021.66 1021.82
1011.55 1012.07 1012.69 1013.34 1013.97 1014.54 1015.02 1015.38 1015.65 1015.82 1015.94 1016.02 1016.09 1016.14 1016.16 1016.16 1016.10 1015.98 1015.80 1015.57 1015.34 1015.12 1014.97 1014.93 1015.02 1015.24 1015.59 1016.05 1016.56 1017.10 1017.63 1018.12 1018.56 1018.93 1019.25 1019.54 1019.80 1020.05 1020.30 1020.55 1020.79 1021.03 1021.25 1021.45 1021.62 1021.79 1021.94 1022.08 1022.22
1011.33 1011.99 1012.74 1013.51 1014.25 1014.91 1015.45 1015.86 1016.15 1016.34 1016.45 1016.53 1016.59 1016.63 1016.66 1016.68 1016.66 1016.60 1016.50 1016.37 1016.25 1016.15 1016.11 1016.15 1016.30 1016.54 1016.88 1017.29 1017.73 1018.18 1018.61 1018.99 1019.34 1019.64 1019.92 1020.17 1020.43 1020.68 1020.94 1021.20 1021.45 1021.67 1021.87 1022.05 1022.19 1022.31 1022.41 1022.51 1022.62
1011.25 1011.98 1012.79 1013.61 1014.39 1015.07 1015.63 1016.06 1016.37 1016.57 1016.70 1016.79 1016.86 1016.92 1016.98 1017.04 1017.07 1017.09 1017.09 1017.08 1017.08 1017.11 1017.19 1017.33 1017.55 1017.83 1018.17 1018.53 1018.90 1019.25 1019.58 1019.87 1020.12 1020.36 1020.59 1020.82 1021.06 1021.31 1021.58 1021.85 1022.10 1022.33 1022.51 1022.66 1022.77 1022.84 1022.89 1022.94 1022.98
1011.34 1012.08 1012.87 1013.66 1014.41 1015.07 1015.61 1016.04 1016.35 1016.58 1016.75 1016.88 1016.99 1017.10 1017.21 1017.31 1017.42 1017.51 1017.61 1017.72 1017.84 1017.99 1018.19 1018.43 1018.72 1019.03 1019.37 1019.70 1020.01 1020.29 1020.53 1020.73 1020.91 1021.09 1021.27 1021.48 1021.71 1021.96 1022.24 1022.51 1022.76 1022.98 1023.15 1023.27 1023.34 1023.37 1023.36 1023.33 1023.30
1011.63 1012.31 1013.02 1013.73 1014.39 1014.98 1015.48 1015.89 1016.22 1016.49 1016.71 1016.91 1017.09 1017.27 1017.44 1017.62 1017.78 1017.95 1018.13 1018.33 1018.55 1018.80 1019.09 1019.41 1019.76 1020.11 1020.46 1020.77 1021.04 1021.26 1021.44 1021.58 1021.70 1021.83 1021.98 1022.16 1022.38 1022.63 1022.90 1023.16 1023.41 1023.61 1023.77 1023.86 1023.89 1023.87 1023.80 1023.71 1023.59
1012.10 1012.69 1013.29 1013.87 1014.41 1014.90 1015.34 1015.74 1016.09 1016.42 1016.72 1017.01 1017.29 1017.55 1017.80 1018.04 1018.26 1018.48 1018.71 1018.96 1019.24 1019.56 1019.92 1020.30 1020.69 1021.07 1021.42 1021.73 1021.98 1022.16 1022.30 1022.40 1022.49 1022.59 1022.71 1022.87 1023.07 1023.30 1023.55 1023.79 1024.02 1024.20 1024.33 1024.39 1024.39 1024.33 1024.22 1024.05 1023.86
Thickness
5799 5804 5805 5794 5767 5745 5745 5764 5782 5786 5791 5804 5810 5807 5802 5795 5786 5779 5802 5808 5804 5797 5793 5790 5789 5787 5785 5784 5781 5779 5777 5774 5773 5771 5769 5767 5765 5764 5762 5760 5758 5756 5754 5752 5751 5749 5747 5746 5744
5795 5798 5793 5774 5745 5728 5742 5771 5781 5791 5802 5808 5808 5809 5805 5800 5805 5800 5800 5802 5802 5796 5792 5789 5787 5785 5783 5782 5779 5777 5775 5772 5770 5769 5766 5765 5763 5761 5759 5757 5756 5754 5752 5750 5748 5747 5745 5743 5742
5790 5790 5771 5753 5739 5732 5750 5777 5788 5802 5812 5810 5805 5810 5806 5801 5805 5801 5802 5801 5797 5793 5790 5788 5786 5784 5782 5780 5777 5775 5773 5770 5768 5766 5765 5763 5761 5759 5757 5755 5754 5752 5750 5749 5747 5745 5743 5742 5740
5778 5768 5757 5740 5738 5753 5767 5785 5795 5798 5807 5813 5808 5800 5807 5816 5813 5808 5803 5799 5794 5790 5788 5786 5784 5782 5780 5778 5776 5774 5771 5769 5767 5765 5763 5761 5759 5758 5756 5754 5752 5751 5749 5748 5746 5744 5742 5741 5739
5766 5748 5734 5727 5740 5763 5782 5794 5800 5797 5802 5809 5808 5795 5795 5812 5816 5808 5802 5797 5793 5788 5785 5783 5782 5780 5778 5776 5774 5772 5770 5768 5766 5764 5762 5760 5758 5757 5755 5753 5752 5750 5748 5747 5745 5743 5741 5740 5738
5744 5733 5717 5717 5740 5766 5784 5798 5798 5799 5804 5806 5804 5792 5790 5806 5807 5803 5800 5795 5792 5787 5783 5781 5780 5778 5777 5775 5773 5771 5769 5767 5765 5763 5762 5760 5758 5756 5754 5753 5751 5749 5748 5746 5744 5742 5740 5738 5736
5734 5722 5716 5726 5739 5756 5785 5801 5798 5796 5799 5805 5808 5789 5788 5797 5804 5803 5798 5794 5789 5785 5782 5779 5778 5777 5776 5774 5772 5770 5769 5766 5764 5763 5761 5759 5757 5755 5754 5752 5751 5749 5747 5746 5744 5742 5739 5737 5734
5742 5724 5723 5728 5736 5754 5788 5795 5801 5799 5802 5817 5814 5792 5786 5799 5806 5802 5796 5791 5786 5783 5780 5779 5777 5776 5775 5773 5771 5770 5768 5766 5764 5762 5761 5759 5757 5755 5753 5752 5750 5748 5747 5745 5743 5741 5738 5735 5733
5745 5716 5712 5728 5741 5760 5783 5785 5798 5809 5809 5812 5816 5812 5812 5811 5807 5798 5789 5784 5781 5779 5778 5778 5777 5775 5774 5772 5771 5769 5767 5765 5764 5762 5760 5759 5757 5755 5753 5751 5749 5747 5745 5743 5741 5738 5736 5733 5731
5732 5711 5722 5746 5757 5764 5776 5780 5791 5794 5793 5798 5805 5811 5814 5810 5804 5796 5788 5782 5779 5777 5777 5778 5777 5775 5774 5773 5770 5768 5767 5765 5764 5762 5760 5758 5756 5755 5753 5750 5748 5746 5744 5741 5738 5736 5734 5731 5728
5735 5727 5739 5752 5764 5769 5771 5780 5792 5787 5781 5794 5800 5803 5805 5803 5800 5796 5791 5788 5786 5783 5780 5779 5778 5776 5775 5774 5770 5768 5767 5765 5763 5762 5760 5758 5756 5754 5752 5749 5747 5744 5742 5739 5736 5733 5731 5728 5725
5738 5743 5750 5757 5767 5768 5771 5779 5784 5789 5792 5807 5811 5810 5804 5799 5796 5795 5792 5790 5788 5785 5783 5782 5780 5778 5776 5775 5771 5769 5767 5765 5763 5761 5759 5757 5755 5752 5750 5748 5745 5743 5740 5736 5733 5730 5727 5724 5721
5734 5741 5755 5762 5765 5769 5773 5775 5781 5787 5801 5806 5806 5805 5803 5801 5797 5796 5795 5793 5791 5787 5785 5784 5783 5781 5778 5776 5773 5770 5768 5766 5764 5762 5759 5757 5754 5752 5750 5747 5744 5741 5737 5734 5730 5727 5723 5720 5717
5739 5744 5752 5759 5763 5771 5770 5774 5778 5784 5797 5796 5796 5797 5801 5801 5799 5796 5793 5792 5792 5790 5788 5787 5785 5784 5781 5777 5774 5772 5769 5766 5763 5761 5759 5757 5754 5751 5748 5744 5741 5737 5734 5731 5727 5723 5719 5715 5713
5741 5737 5742 5754 5762 5768 5769 5762 5774 5786 5790 5787 5789 5793 5796 5798 5800 5799 5797 5794 5794 5794 5793 5790 5789 5786 5783 5779 5776 5774 5770 5766 5763 5761 5759 5755 5753 5750 5746 5742 5738 5734 5731 5727 5723 5719 5715 5711 5707
5730 5726 5722 5745 5761 5767 5758 5744 5772 5786 5782 5780 5783 5787 5789 5791 5795 5799 5798 5796 5795 5794 5794 5792 5791 5787 5784 5780 5777 5774 5770 5766 5762 5759 5757 5753 5750 5747 5743 5738 5734 5730 5726 5722 5718 5713 5708 5704 5700
5710 5707 5715 5733 5756 5760 5752 5746 5771 5784 5779 5777 5779 5782 5783 5783 5787 5792 5795 5793 5791 5791 5791 5790 5790 5786 5782 5779 5775 5772 5767 5763 5760 5756 5752 5749 5745 5741 5737 5732 5728 5724 5720 5715 5711 5706 5702 5697 5694
5694 5704 5712 5720 5743 5750 5744 5748 5767 5778 5778 5775 5777 5776 5775 5775 5778 5784 5789 5789 5787 5786 5784 5784 5785 5782 5778 5774 5769 5765 5761 5757 5754 5750 5746 5742 5738 5734 5730 5725 5720 5716 5712 5707 5704 5699 5695 5691 5688
5704 5705 5706 5723 5743 5742 5741 5748 5760 5768 5768 5768 5768 5768 5767 5768 5774 5779 5782 5784 5784 5781 5778 5778 5777 5776 5773 5768 5762 5756 5751 5747 5744 5741 5738 5734 5729 5726 5722 5716 5711 5707 5703 5699 5695 5692 5687 5683 5681
5701 5699 5705 5722 5741 5743 5739 5744 5753 5758 5759 5761 5760 5759 5760 5762 5766 5770 5773 5775 5775 5774 5772 5773 5772 5771 5769 5766 5760 5753 5746 5739 5735 5732 5728 5723 5720 5716 5712 5708 5703 5698 5694 5690 5687 5684 5679 5675 5672
5697 5698 5704 5712 5728 5740 5738 5731 5737 5743 5748 5749 5748 5749 5751 5755 5756 5758 5760 5762 5765 5764 5765 5767 5765 5764 5763 5760 5753 5745 5737 5730 5724 5719 5714 5710 5707 5704 5701 5697 5694 5689 5685 5681 5678 5675 5671 5665 5661
5688 5712 5716 5716 5708 5703 5722 5701 5722 5731 5729 5731 5731 5733 5736 5742 5747 5748 5751 5752 5755 5756 5758 5759 5757 5756 5754 5751 5745 5738 5729 5719 5713 5708 5702 5697 5694 5691 5688 5684 5682 5678 5674 5670 5667 5665 5661 5657 5651
5699 5717 5717 5715 5708 5701 5708 5699 5707 5722 5716 5716 5718 5721 5723 5728 5733 5736 5739 5742 5744 5745 5746 5747 5746 5744 5741 5738 5733 5727 5719 5711 5703 5696 5691 5685 5681 5678 5674 5671 5668 5665 5660 5657 5654 5651 5648 5645 5640
5711 5710 5708 5700 5689 5680 5700 5697 5694 5705 5711 5708 5708 5709 5711 5715 5719 5721 5725 5728 5729 5731 5732 5733 5732 5728 5726 5723 5719 5714 5707 5699 5691 5684 5678 5672 5668 5664 5661 5657 5655 5651 5647 5643 5640 5637 5633 5630 5626
5700 5678 5663 5666 5660 5670 5699 5692 5685 5698 5705 5701 5697 5696 5698 5702 5705 5707 5710 5712 5713 5714 5716 5717 5715 5711 5709 5707 5703 5699 5693 5686 5679 5672 5666 5660 5654 5650 5645 5642 5639 5636 5632 5628 5625 5622 5618 5615 5611
5688 5677 5656 5652 5656 5669 5690 5677 5678 5687 5689 5687 5685 5684 5685 5687 5691 5693 5695 5696 5697 5697 5697 5698 5697 5694 5692 5690 5685 5680 5676 5670 5663 5657 5652 5646 5640 5635 5631 5628 5623 5619 5616 5613 5609 5605 5602 5598 5594
5684 5677 5679 5665 5667 5662 5667 5670 5670 5677 5676 5673 5672 5671 5671 5673 5675 5677 5679 5680 5679 5679 5678 5678 5678 5676 5673 5670 5666 5662 5657 5653 5647 5641 5636 5631 5626 5621 5617 5613 5609 5604 5601 5597 5593 5589 5584 5581 5578
5693 5686 5667 5656 5648 5647 5663 5664 5664 5665 5664 5661 5659 5658 5658 5660 5661 5662 5664 5664 5663 5661 5660 5660 5660 5657 5654 5651 5648 5644 5639 5635 5630 5625 5620 5615 5610 5606 5602 5597 5593 5588 5584 5580 5576 5571 5567 5563 5559
5680 5676 5667 5656 5655 5647 5646 5651 5671 5666 5661 5654 5649 5648 5647 5647 5647 5647 5648 5648 5647 5646 5645 5643 5641 5639 5635 5632 5629 5625 5621 5617 5613 5609 5604 5599 5594 5590 5585 5580 5575 5570 5565 5561 5557 5552 5548 5545 5541
5679 5672 5662 5648 5650 5653 5645 5643 5661 5657 5652 5646 5640 5636 5635 5635 5634 5634 5634 5634 5632 5630 5628 5626 5624 5621 5618 5615 5613 5609 5604 5600 5596 5591 5586 5582 5578 5573 5568 5563 5557 5551 5545 5541 5537 5533 5529 5525 5521